Time,TemperatureF,DewpointF,PressureIn,WindDirection,WindDirectionDegrees,WindSpeedMPH,WindSpeedGustMPH,Humidity,HourlyPrecipIn,Conditions,Clouds,dailyrainin,SoftwareType,DateUTC
2013-02-06 00:00:00,38.3,33.9,29.97,SW,214,0.0,0.0,84,0.00,,,0.00,Wunderground v.1.15,2013-02-06 05:00:00,
2013-02-06 00:01:00,38.3,33.9,29.98,SW,214,0.0,0.0,84,0.00,,,0.00,Wunderground v.1.15,2013-02-06 05:01:00,
2013-02-06 00:03:00,38.3,33.9,29.98,SW,214,0.0,0.0,84,0.00,,,0.00,Wunderground v.1.15,2013-02-06 05:03:00,
2013-02-06 00:09:00,38.1,33.7,29.97,SW,214,0.0,0.0,84,0.00,,,0.00,Wunderground v.1.15,2013-02-06 05:09:00,
2013-02-06 00:15:00,38.0,33.9,29.97,SW,214,0.0,0.0,85,0.00,,,0.00,Wunderground v.1.15,2013-02-06 05:15:00,
2013-02-06 00:20:00,37.8,33.7,29.97,SW,214,0.0,0.0,85,0.00,,,0.00,Wunderground v.1.15,2013-02-06 05:20:00,
2013-02-06 00:26:00,37.6,33.5,29.98,SW,214,0.0,0.0,85,0.00,,,0.00,Wunderground v.1.15,2013-02-06 05:26:00,
2013-02-06 00:32:00,37.4,33.3,29.98,SW,214,0.0,0.0,85,0.00,,,0.00,Wunderground v.1.15,2013-02-06 05:32:00,
2013-02-06 00:38:00,37.2,33.4,29.98,SW,214,0.0,0.0,86,0.00,,,0.00,Wunderground v.1.15,2013-02-06 05:38:00,
2013-02-06 00:43:00,37.1,33.3,29.98,SW,214,0.0,0.0,86,0.00,,,0.00,Wunderground v.1.15,2013-02-06 05:43:00,
2013-02-06 00:49:00,36.9,33.1,29.98,SW,214,0.0,0.0,86,0.00,,,0.00,Wunderground v.1.15,2013-02-06 05:49:00,
2013-02-06 00:55:00,36.7,33.2,29.98,SW,214,0.0,0.0,87,0.00,,,0.00,Wunderground v.1.15,2013-02-06 05:55:00,
2013-02-06 00:56:00,36.7,33.2,29.98,SW,214,0.0,0.0,87,0.00,,,0.00,Wunderground v.1.15,2013-02-06 05:56:00,
2013-02-06 01:01:00,36.6,33.1,29.97,SW,214,0.0,0.0,87,0.00,,,0.00,Wunderground v.1.15,2013-02-06 06:01:00,
2013-02-06 01:07:00,36.5,33.0,29.98,SW,214,0.0,0.0,87,0.00,,,0.00,Wunderground v.1.15,2013-02-06 06:07:00,
2013-02-06 01:13:00,36.4,32.9,29.97,SW,214,0.0,0.0,87,0.00,,,0.00,Wunderground v.1.15,2013-02-06 06:13:00,
2013-02-06 01:18:00,36.3,32.8,29.98,SW,214,0.0,0.0,87,0.00,,,0.00,Wunderground v.1.15,2013-02-06 06:18:00,
2013-02-06 01:23:00,36.1,32.6,29.98,SW,214,0.0,0.0,87,0.00,,,0.00,Wunderground v.1.15,2013-02-06 06:23:00,
2013-02-06 01:29:00,36.1,32.9,29.98,SW,214,0.0,0.0,88,0.00,,,0.00,Wunderground v.1.15,2013-02-06 06:29:00,
2013-02-06 01:35:00,36.0,32.8,29.98,SW,214,0.0,0.0,88,0.00,,,0.00,Wunderground v.1.15,2013-02-06 06:35:00,
2013-02-06 01:41:00,35.9,32.7,29.98,SW,214,0.0,0.0,88,0.00,,,0.00,Wunderground v.1.15,2013-02-06 06:41:00,
2013-02-06 01:46:00,35.7,32.5,29.98,SW,214,0.0,0.0,88,0.00,,,0.00,Wunderground v.1.15,2013-02-06 06:46:00,
2013-02-06 01:52:00,35.6,32.4,29.98,SW,214,0.0,0.0,88,0.00,,,0.00,Wunderground v.1.15,2013-02-06 06:52:00,
2013-02-06 01:58:00,35.4,32.2,29.98,SW,214,0.0,0.0,88,0.00,,,0.00,Wunderground v.1.15,2013-02-06 06:58:00,
2013-02-06 02:04:00,35.2,32.0,29.98,SSW,213,0.0,0.0,88,0.00,,,0.00,Wunderground v.1.15,2013-02-06 07:04:00,
2013-02-06 02:10:00,35.1,32.2,29.99,SW,214,0.0,0.0,89,0.00,,,0.00,Wunderground v.1.15,2013-02-06 07:10:00,
2013-02-06 02:15:00,35.0,32.1,29.99,SW,214,0.0,0.0,89,0.00,,,0.00,Wunderground v.1.15,2013-02-06 07:15:00,
2013-02-06 02:21:00,34.9,32.0,29.99,SW,214,0.0,0.0,89,0.00,,,0.00,Wunderground v.1.15,2013-02-06 07:21:00,
2013-02-06 02:27:00,34.8,31.9,29.99,SW,214,0.0,0.0,89,0.00,,,0.00,Wunderground v.1.15,2013-02-06 07:27:00,
2013-02-06 02:33:00,34.7,31.8,29.99,SW,214,0.0,0.0,89,0.00,,,0.00,Wunderground v.1.15,2013-02-06 07:33:00,
2013-02-06 02:39:00,34.6,31.7,29.99,SW,214,0.0,0.0,89,0.00,,,0.00,Wunderground v.1.15,2013-02-06 07:39:00,
2013-02-06 02:45:00,34.5,31.6,29.99,SW,214,0.0,0.0,89,0.00,,,0.00,Wunderground v.1.15,2013-02-06 07:45:00,
2013-02-06 02:51:00,34.4,31.5,29.99,SW,214,0.0,0.0,89,0.00,,,0.00,Wunderground v.1.15,2013-02-06 07:51:00,
2013-02-06 02:57:00,34.3,31.4,29.99,SW,214,0.0,0.0,89,0.00,,,0.00,Wunderground v.1.15,2013-02-06 07:57:00,
2013-02-06 03:02:00,34.2,31.6,29.98,SW,214,0.0,0.0,90,0.00,,,0.00,Wunderground v.1.15,2013-02-06 08:02:00,
2013-02-06 03:08:00,34.1,31.5,29.99,SW,214,0.0,0.0,90,0.00,,,0.00,Wunderground v.1.15,2013-02-06 08:08:00,
2013-02-06 03:14:00,34.0,31.4,29.99,SW,214,0.0,0.0,90,0.00,,,0.00,Wunderground v.1.15,2013-02-06 08:14:00,
2013-02-06 03:20:00,33.9,31.3,29.99,SW,214,0.0,0.0,90,0.00,,,0.00,Wunderground v.1.15,2013-02-06 08:20:00,
2013-02-06 03:25:00,33.8,31.2,29.99,SW,214,0.0,0.0,90,0.00,,,0.00,Wunderground v.1.15,2013-02-06 08:25:00,
2013-02-06 03:31:00,33.7,31.1,29.99,SW,214,0.0,0.0,90,0.00,,,0.00,Wunderground v.1.15,2013-02-06 08:31:00,
2013-02-06 03:37:00,33.6,31.0,29.99,SW,214,0.0,0.0,90,0.00,,,0.00,Wunderground v.1.15,2013-02-06 08:37:00,
2013-02-06 03:43:00,33.5,30.9,29.99,SW,214,0.0,0.0,90,0.00,,,0.00,Wunderground v.1.15,2013-02-06 08:43:00,
2013-02-06 03:49:00,33.4,30.8,30.00,SW,214,0.0,0.0,90,0.00,,,0.00,Wunderground v.1.15,2013-02-06 08:49:00,
2013-02-06 03:55:00,33.3,30.7,30.00,SW,214,0.0,0.0,90,0.00,,,0.00,Wunderground v.1.15,2013-02-06 08:55:00,
2013-02-06 04:01:00,33.1,30.5,30.00,SW,214,0.0,0.0,90,0.00,,,0.00,Wunderground v.1.15,2013-02-06 09:01:00,
2013-02-06 04:06:00,33.0,30.4,30.00,SW,214,0.0,0.0,90,0.00,,,0.00,Wunderground v.1.15,2013-02-06 09:06:00,
2013-02-06 04:12:00,32.9,30.3,30.00,SW,214,0.0,0.0,90,0.00,,,0.00,Wunderground v.1.15,2013-02-06 09:12:00,
2013-02-06 04:17:00,32.8,30.2,30.00,SW,214,0.0,0.0,90,0.00,,,0.00,Wunderground v.1.15,2013-02-06 09:17:00,
2013-02-06 04:23:00,32.7,30.1,30.01,SW,214,0.0,0.0,90,0.00,,,0.00,Wunderground v.1.15,2013-02-06 09:23:00,
2013-02-06 04:29:00,32.5,30.2,30.01,SW,214,0.0,0.0,91,0.00,,,0.00,Wunderground v.1.15,2013-02-06 09:29:00,
2013-02-06 04:34:00,32.4,30.1,30.01,SW,214,0.0,0.0,91,0.00,,,0.00,Wunderground v.1.15,2013-02-06 09:34:00,
2013-02-06 04:40:00,32.3,30.0,30.01,SW,214,0.0,0.0,91,0.00,,,0.00,Wunderground v.1.15,2013-02-06 09:40:00,
2013-02-06 04:46:00,32.2,29.9,30.02,SW,214,0.0,0.0,91,0.00,,,0.00,Wunderground v.1.15,2013-02-06 09:46:00,
2013-02-06 04:52:00,32.1,29.8,30.02,SW,214,0.0,0.0,91,0.00,,,0.00,Wunderground v.1.15,2013-02-06 09:52:00,
2013-02-06 04:58:00,32.0,29.7,30.02,SW,214,0.0,0.0,91,0.00,,,0.00,Wunderground v.1.15,2013-02-06 09:58:00,
2013-02-06 05:04:00,32.0,29.7,30.02,SW,214,0.0,0.0,91,0.00,,,0.00,Wunderground v.1.15,2013-02-06 10:04:00,
2013-02-06 05:10:00,31.9,29.6,30.03,SW,214,0.0,0.0,91,0.00,,,0.00,Wunderground v.1.15,2013-02-06 10:10:00,
2013-02-06 05:15:00,31.9,29.6,30.03,SW,214,0.0,0.0,91,0.00,,,0.00,Wunderground v.1.15,2013-02-06 10:15:00,
2013-02-06 05:21:00,31.9,29.6,30.03,SW,214,0.0,0.0,91,0.00,,,0.00,Wunderground v.1.15,2013-02-06 10:21:00,
2013-02-06 05:27:00,31.8,29.7,30.03,SW,214,0.0,0.0,92,0.00,,,0.00,Wunderground v.1.15,2013-02-06 10:27:00,
2013-02-06 05:33:00,31.8,29.7,30.03,SW,214,0.0,0.0,92,0.00,,,0.00,Wunderground v.1.15,2013-02-06 10:33:00,
2013-02-06 05:38:00,31.7,29.6,30.04,SW,214,0.0,0.0,92,0.00,,,0.00,Wunderground v.1.15,2013-02-06 10:38:00,
2013-02-06 05:44:00,31.6,29.5,30.04,SW,214,0.0,0.0,92,0.00,,,0.00,Wunderground v.1.15,2013-02-06 10:44:00,
2013-02-06 05:50:00,31.5,29.4,30.04,SW,214,0.0,0.0,92,0.00,,,0.00,Wunderground v.1.15,2013-02-06 10:50:00,
2013-02-06 05:56:00,31.4,29.3,30.05,SW,214,0.0,0.0,92,0.00,,,0.00,Wunderground v.1.15,2013-02-06 10:56:00,
2013-02-06 06:02:00,31.4,29.3,30.05,SW,214,0.0,0.0,92,0.00,,,0.00,Wunderground v.1.15,2013-02-06 11:02:00,
2013-02-06 06:07:00,31.4,29.3,30.06,SW,214,0.0,0.0,92,0.00,,,0.00,Wunderground v.1.15,2013-02-06 11:07:00,
2013-02-06 06:13:00,31.4,29.3,30.06,SW,214,0.0,0.0,92,0.00,,,0.00,Wunderground v.1.15,2013-02-06 11:13:00,
2013-02-06 06:18:00,31.4,29.3,30.06,SW,214,0.0,0.0,92,0.00,,,0.00,Wunderground v.1.15,2013-02-06 11:18:00,
2013-02-06 06:24:00,31.3,29.2,30.06,SW,214,0.0,0.0,92,0.00,,,0.00,Wunderground v.1.15,2013-02-06 11:24:00,
2013-02-06 06:30:00,31.3,29.2,30.07,SW,214,0.0,0.0,92,0.00,,,0.00,Wunderground v.1.15,2013-02-06 11:30:00,
2013-02-06 06:36:00,31.1,29.0,30.07,SW,214,0.0,0.0,92,0.00,,,0.00,Wunderground v.1.15,2013-02-06 11:36:00,
2013-02-06 06:41:00,30.9,28.9,30.07,SW,214,0.0,0.0,92,0.00,,,0.00,Wunderground v.1.15,2013-02-06 11:41:00,
2013-02-06 06:47:00,30.8,28.8,30.08,SW,214,0.0,0.0,92,0.00,,,0.00,Wunderground v.1.15,2013-02-06 11:47:00,
2013-02-06 06:53:00,30.8,28.8,30.08,SW,214,0.0,0.0,92,0.00,,,0.00,Wunderground v.1.15,2013-02-06 11:53:00,
2013-02-06 06:59:00,30.9,28.9,30.09,SW,214,0.0,0.0,92,0.00,,,0.00,Wunderground v.1.15,2013-02-06 11:59:00,
2013-02-06 07:04:00,30.9,28.9,30.09,SW,214,0.0,0.0,92,0.00,,,0.00,Wunderground v.1.15,2013-02-06 12:04:00,
2013-02-06 07:10:00,30.9,28.9,30.09,SW,214,0.0,0.0,92,0.00,,,0.00,Wunderground v.1.15,2013-02-06 12:10:00,
2013-02-06 07:16:00,30.9,29.1,30.09,SW,214,0.0,0.0,93,0.00,,,0.00,Wunderground v.1.15,2013-02-06 12:16:00,
2013-02-06 07:22:00,30.9,29.1,30.10,SW,214,0.0,0.0,93,0.00,,,0.00,Wunderground v.1.15,2013-02-06 12:22:00,
2013-02-06 07:28:00,30.9,29.1,30.10,SW,214,0.0,0.0,93,0.00,,,0.00,Wunderground v.1.15,2013-02-06 12:28:00,
2013-02-06 07:34:00,31.0,29.2,30.10,SW,214,0.0,0.0,93,0.00,,,0.00,Wunderground v.1.15,2013-02-06 12:34:00,
2013-02-06 07:40:00,31.0,29.2,30.11,SW,214,0.0,0.0,93,0.00,,,0.00,Wunderground v.1.15,2013-02-06 12:40:00,
2013-02-06 07:45:00,31.2,29.4,30.11,SW,214,0.0,0.0,93,0.00,,,0.00,Wunderground v.1.15,2013-02-06 12:45:00,
2013-02-06 07:51:00,31.3,29.5,30.12,SW,214,0.0,0.0,93,0.00,,,0.00,Wunderground v.1.15,2013-02-06 12:51:00,
2013-02-06 07:57:00,31.5,29.7,30.12,SW,214,0.0,0.0,93,0.00,,,0.00,Wunderground v.1.15,2013-02-06 12:57:00,
2013-02-06 08:03:00,31.8,30.0,30.12,SW,214,0.0,0.0,93,0.00,,,0.00,Wunderground v.1.15,2013-02-06 13:03:00,
2013-02-06 08:08:00,32.2,30.7,30.12,SW,214,0.0,0.0,94,0.00,,,0.00,Wunderground v.1.15,2013-02-06 13:08:00,
2013-02-06 08:14:00,32.7,31.2,30.13,SW,214,0.0,0.0,94,0.00,,,0.00,Wunderground v.1.15,2013-02-06 13:14:00,
2013-02-06 08:20:00,33.1,31.6,30.14,SW,214,0.0,0.0,94,0.00,,,0.00,Wunderground v.1.15,2013-02-06 13:20:00,
2013-02-06 08:26:00,33.8,32.3,30.14,SW,214,0.0,0.0,94,0.00,,,0.00,Wunderground v.1.15,2013-02-06 13:26:00,
2013-02-06 08:32:00,34.8,33.2,30.14,SW,214,0.0,0.0,94,0.00,,,0.00,Wunderground v.1.15,2013-02-06 13:32:00,
2013-02-06 08:39:00,35.7,34.1,30.14,SW,214,0.0,0.0,94,0.00,,,0.00,Wunderground v.1.15,2013-02-06 13:39:00,
2013-02-06 08:45:00,36.3,34.5,30.14,SW,214,0.0,0.0,93,0.00,,,0.00,Wunderground v.1.15,2013-02-06 13:45:00,
2013-02-06 08:50:00,37.1,35.3,30.14,SW,214,0.0,0.0,93,0.00,,,0.00,Wunderground v.1.15,2013-02-06 13:50:00,
2013-02-06 08:55:00,37.8,35.7,30.14,SW,214,0.0,0.0,92,0.00,,,0.00,Wunderground v.1.15,2013-02-06 13:55:00,
2013-02-06 09:01:00,39.2,37.1,30.14,SSW,204,0.0,0.0,92,0.00,,,0.00,Wunderground v.1.15,2013-02-06 14:01:00,
2013-02-06 09:07:00,41.5,37.6,30.14,WSW,243,0.0,1.0,86,0.00,,,0.00,Wunderground v.1.15,2013-02-06 14:07:00,
2013-02-06 09:12:00,43.7,37.3,30.15,East,88,0.0,2.0,78,0.00,,,0.00,Wunderground v.1.15,2013-02-06 14:12:00,
2013-02-06 09:18:00,46.2,38.0,30.15,WSW,240,1.0,2.0,73,0.00,,,0.00,Wunderground v.1.15,2013-02-06 14:18:00,
2013-02-06 09:23:00,47.6,37.6,30.15,East,92,1.0,1.0,68,0.00,,,0.00,Wunderground v.1.15,2013-02-06 14:23:00,
2013-02-06 09:29:00,48.6,37.0,30.15,WSW,257,0.0,1.0,64,0.00,,,0.00,Wunderground v.1.15,2013-02-06 14:29:00,
2013-02-06 09:35:00,49.6,37.5,30.15,WSW,243,0.0,1.0,63,0.00,,,0.00,Wunderground v.1.15,2013-02-06 14:35:00,
2013-02-06 09:41:00,50.4,37.0,30.15,West,280,0.0,1.0,60,0.00,,,0.00,Wunderground v.1.15,2013-02-06 14:41:00,
2013-02-06 09:46:00,50.9,36.6,30.15,ESE,102,0.0,1.0,58,0.00,,,0.00,Wunderground v.1.15,2013-02-06 14:46:00,
2013-02-06 09:52:00,51.5,36.8,30.16,SW,236,0.0,3.0,57,0.00,,,0.00,Wunderground v.1.15,2013-02-06 14:52:00,
2013-02-06 09:57:00,52.0,36.3,30.15,North,359,1.0,3.0,55,0.00,,,0.00,Wunderground v.1.15,2013-02-06 14:57:00,
2013-02-06 10:03:00,52.6,36.9,30.15,SSW,205,0.0,2.0,55,0.00,,,0.00,Wunderground v.1.15,2013-02-06 15:03:00,
2013-02-06 10:09:00,53.2,37.9,30.16,SSW,207,0.0,2.0,56,0.00,,,0.00,Wunderground v.1.15,2013-02-06 15:09:00,
2013-02-06 10:15:00,53.7,36.5,30.16,NNE,13,0.0,1.0,52,0.00,,,0.00,Wunderground v.1.15,2013-02-06 15:15:00,
2013-02-06 10:20:00,54.1,36.4,30.15,West,262,0.0,1.0,51,0.00,,,0.00,Wunderground v.1.15,2013-02-06 15:20:00,
2013-02-06 10:26:00,54.6,35.8,30.16,West,259,1.0,2.0,49,0.00,,,0.00,Wunderground v.1.15,2013-02-06 15:26:00,
2013-02-06 10:32:00,54.8,35.5,30.16,ESE,120,1.0,2.0,48,0.00,,,0.00,Wunderground v.1.15,2013-02-06 15:32:00,
2013-02-06 10:38:00,55.1,35.7,30.16,SE,132,0.0,2.0,48,0.00,,,0.00,Wunderground v.1.15,2013-02-06 15:38:00,
2013-02-06 10:43:00,55.5,35.0,30.16,ENE,64,0.0,1.0,46,0.00,,,0.00,Wunderground v.1.15,2013-02-06 15:43:00,
2013-02-06 10:49:00,55.9,34.8,30.16,WNW,287,1.0,2.0,45,0.00,,,0.00,Wunderground v.1.15,2013-02-06 15:49:00,
2013-02-06 10:54:00,56.0,34.9,30.16,East,101,1.0,1.0,45,0.00,,,0.00,Wunderground v.1.15,2013-02-06 15:54:00,
2013-02-06 11:00:00,56.6,35.5,30.16,East,92,1.0,1.0,45,0.00,,,0.00,Wunderground v.1.15,2013-02-06 16:00:00,
2013-02-06 11:06:00,57.0,35.3,30.16,East,91,0.0,2.0,44,0.00,,,0.00,Wunderground v.1.15,2013-02-06 16:06:00,
2013-02-06 11:11:00,57.1,34.2,30.16,West,266,1.0,1.0,42,0.00,,,0.00,Wunderground v.1.15,2013-02-06 16:11:00,
2013-02-06 11:17:00,57.4,34.5,30.15,WNW,283,1.0,1.0,42,0.00,,,0.00,Wunderground v.1.15,2013-02-06 16:17:00,
2013-02-06 11:23:00,58.0,35.6,30.15,East,92,0.0,1.0,43,0.00,,,0.00,Wunderground v.1.15,2013-02-06 16:23:00,
2013-02-06 11:28:00,58.4,34.2,30.15,NW,308,0.0,1.0,40,0.00,,,0.00,Wunderground v.1.15,2013-02-06 16:28:00,
2013-02-06 11:34:00,58.5,34.2,30.15,WNW,288,0.0,3.0,40,0.00,,,0.00,Wunderground v.1.15,2013-02-06 16:34:00,
2013-02-06 11:40:00,58.6,34.3,30.15,SE,128,0.0,1.0,40,0.00,,,0.00,Wunderground v.1.15,2013-02-06 16:40:00,
2013-02-06 11:46:00,58.9,33.3,30.15,SE,135,0.0,1.0,38,0.00,,,0.00,Wunderground v.1.15,2013-02-06 16:46:00,
2013-02-06 11:52:00,59.3,33.7,30.15,WNW,283,1.0,2.0,38,0.00,,,0.00,Wunderground v.1.15,2013-02-06 16:52:00,
2013-02-06 11:57:00,59.3,33.7,30.14,WSW,245,1.0,3.0,38,0.00,,,0.00,Wunderground v.1.15,2013-02-06 16:57:00,
2013-02-06 12:03:00,59.5,35.1,30.14,North,354,1.0,1.0,40,0.00,,,0.00,Wunderground v.1.15,2013-02-06 17:03:00,
2013-02-06 12:09:00,59.8,33.5,30.15,East,97,0.0,1.0,37,0.00,,,0.00,Wunderground v.1.15,2013-02-06 17:09:00,
2013-02-06 12:15:00,60.1,31.6,30.15,East,94,0.0,2.0,34,0.00,,,0.00,Wunderground v.1.15,2013-02-06 17:15:00,
2013-02-06 12:20:00,60.3,32.5,30.14,WNW,290,0.0,0.0,35,0.00,,,0.00,Wunderground v.1.15,2013-02-06 17:20:00,
2013-02-06 12:26:00,60.5,32.0,30.15,NNW,347,1.0,2.0,34,0.00,,,0.00,Wunderground v.1.15,2013-02-06 17:26:00,
2013-02-06 12:32:00,60.4,31.9,30.14,ESE,123,1.0,1.0,34,0.00,,,0.00,Wunderground v.1.15,2013-02-06 17:32:00,
2013-02-06 12:37:00,60.4,31.1,30.14,NNE,27,1.0,2.0,33,0.00,,,0.00,Wunderground v.1.15,2013-02-06 17:37:00,
2013-02-06 12:43:00,61.0,33.1,30.14,West,264,1.0,2.0,35,0.00,,,0.00,Wunderground v.1.15,2013-02-06 17:43:00,
2013-02-06 12:49:00,61.3,31.2,30.14,NE,46,0.0,2.0,32,0.00,,,0.00,Wunderground v.1.15,2013-02-06 17:49:00,
2013-02-06 12:55:00,61.6,31.4,30.14,West,263,1.0,2.0,32,0.00,,,0.00,Wunderground v.1.15,2013-02-06 17:55:00,
2013-02-06 13:00:00,61.7,32.3,30.14,SE,138,1.0,1.0,33,0.00,,,0.00,Wunderground v.1.15,2013-02-06 18:00:00,
2013-02-06 13:06:00,61.8,31.6,30.14,East,87,1.0,3.0,32,0.00,,,0.00,Wunderground v.1.15,2013-02-06 18:06:00,
2013-02-06 13:13:00,61.6,30.6,30.13,SW,217,1.0,1.0,31,0.00,,,0.00,Wunderground v.1.15,2013-02-06 18:13:00,
2013-02-06 13:19:00,61.7,30.7,30.13,NE,49,1.0,1.0,31,0.00,,,0.00,Wunderground v.1.15,2013-02-06 18:19:00,
2013-02-06 13:24:00,61.7,29.9,30.13,ESE,117,1.0,1.0,30,0.00,,,0.00,Wunderground v.1.15,2013-02-06 18:24:00,
2013-02-06 13:30:00,62.0,30.2,30.13,East,85,1.0,1.0,30,0.00,,,0.00,Wunderground v.1.15,2013-02-06 18:30:00,
2013-02-06 13:36:00,62.2,31.2,30.13,West,264,1.0,2.0,31,0.00,,,0.00,Wunderground v.1.15,2013-02-06 18:36:00,
2013-02-06 13:41:00,62.6,31.5,30.13,WSW,238,0.0,1.0,31,0.00,,,0.00,Wunderground v.1.15,2013-02-06 18:41:00,
2013-02-06 13:47:00,62.9,30.1,30.13,NE,53,1.0,2.0,29,0.00,,,0.00,Wunderground v.1.15,2013-02-06 18:47:00,
2013-02-06 13:53:00,63.3,29.6,30.13,East,80,0.0,1.0,28,0.00,,,0.00,Wunderground v.1.15,2013-02-06 18:53:00,
2013-02-06 13:58:00,63.4,30.6,30.12,ENE,78,0.0,1.0,29,0.00,,,0.00,Wunderground v.1.15,2013-02-06 18:58:00,
2013-02-06 14:04:00,63.5,29.8,30.12,SSW,198,0.0,1.0,28,0.00,,,0.00,Wunderground v.1.15,2013-02-06 19:04:00,
2013-02-06 14:09:00,63.6,29.9,30.12,WNW,298,0.0,1.0,28,0.00,,,0.00,Wunderground v.1.15,2013-02-06 19:09:00,
2013-02-06 14:14:00,63.3,29.6,30.12,NNW,338,1.0,2.0,28,0.00,,,0.00,Wunderground v.1.15,2013-02-06 19:14:00,
2013-02-06 14:20:00,63.3,29.6,30.12,NNW,335,1.0,1.0,28,0.00,,,0.00,Wunderground v.1.15,2013-02-06 19:20:00,
2013-02-06 14:26:00,63.3,29.6,30.12,East,84,1.0,2.0,28,0.00,,,0.00,Wunderground v.1.15,2013-02-06 19:26:00,
2013-02-06 14:32:00,63.0,28.5,30.12,NE,39,0.0,1.0,27,0.00,,,0.00,Wunderground v.1.15,2013-02-06 19:32:00,
2013-02-06 14:37:00,62.9,28.4,30.12,ESE,117,0.0,4.0,27,0.00,,,0.00,Wunderground v.1.15,2013-02-06 19:37:00,
2013-02-06 14:43:00,62.6,27.2,30.12,East,91,1.0,1.0,26,0.00,,,0.00,Wunderground v.1.15,2013-02-06 19:43:00,
2013-02-06 14:49:00,62.3,27.9,30.12,ESE,109,1.0,1.0,27,0.00,,,0.00,Wunderground v.1.15,2013-02-06 19:49:00,
2013-02-06 14:55:00,62.0,27.6,30.13,ENE,71,1.0,2.0,27,0.00,,,0.00,Wunderground v.1.15,2013-02-06 19:55:00,
2013-02-06 15:00:00,61.8,28.3,30.13,WSW,250,1.0,1.0,28,0.00,,,0.00,Wunderground v.1.15,2013-02-06 20:00:00,
2013-02-06 15:06:00,61.4,27.1,30.13,ENE,71,1.0,2.0,27,0.00,,,0.00,Wunderground v.1.15,2013-02-06 20:06:00,
2013-02-06 15:12:00,61.2,26.9,30.13,WSW,252,1.0,1.0,27,0.00,,,0.00,Wunderground v.1.15,2013-02-06 20:12:00,
2013-02-06 15:18:00,61.2,27.8,30.13,East,93,0.0,1.0,28,0.00,,,0.00,Wunderground v.1.15,2013-02-06 20:18:00,
2013-02-06 15:24:00,61.1,27.7,30.13,East,84,0.0,2.0,28,0.00,,,0.00,Wunderground v.1.15,2013-02-06 20:24:00,
2013-02-06 15:30:00,60.8,27.5,30.13,ESE,122,0.0,1.0,28,0.00,,,0.00,Wunderground v.1.15,2013-02-06 20:30:00,
2013-02-06 15:36:00,60.5,27.2,30.13,East,83,0.0,1.0,28,0.00,,,0.00,Wunderground v.1.15,2013-02-06 20:36:00,
2013-02-06 15:41:00,60.4,28.8,30.13,East,93,0.0,0.0,30,0.00,,,0.00,Wunderground v.1.15,2013-02-06 20:41:00,
2013-02-06 15:47:00,60.3,29.5,30.13,NE,53,0.0,0.0,31,0.00,,,0.00,Wunderground v.1.15,2013-02-06 20:47:00,
2013-02-06 15:53:00,60.1,28.5,30.13,East,86,0.0,0.0,30,0.00,,,0.00,Wunderground v.1.15,2013-02-06 20:53:00,
2013-02-06 15:59:00,60.1,28.5,30.13,East,86,0.0,0.0,30,0.00,,,0.00,Wunderground v.1.15,2013-02-06 20:59:00,
2013-02-06 16:05:00,60.3,27.9,30.13,SSE,148,0.0,1.0,29,0.00,,,0.00,Wunderground v.1.15,2013-02-06 21:05:00,
2013-02-06 16:11:00,60.3,28.7,30.13,SE,134,0.0,0.0,30,0.00,,,0.00,Wunderground v.1.15,2013-02-06 21:11:00,
2013-02-06 16:17:00,60.0,27.6,30.14,East,100,0.0,1.0,29,0.00,,,0.00,Wunderground v.1.15,2013-02-06 21:17:00,
2013-02-06 16:23:00,59.7,29.0,30.14,East,100,0.0,0.0,31,0.00,,,0.00,Wunderground v.1.15,2013-02-06 21:23:00,
2013-02-06 16:28:00,59.6,28.9,30.14,WSW,246,0.0,0.0,31,0.00,,,0.00,Wunderground v.1.15,2013-02-06 21:28:00,
2013-02-06 16:34:00,59.6,28.1,30.14,SSE,157,0.0,0.0,30,0.00,,,0.00,Wunderground v.1.15,2013-02-06 21:34:00,
2013-02-06 16:40:00,59.3,27.8,30.15,NE,56,0.0,0.0,30,0.00,,,0.00,Wunderground v.1.15,2013-02-06 21:40:00,
2013-02-06 16:46:00,59.0,28.4,30.15,NE,56,0.0,0.0,31,0.00,,,0.00,Wunderground v.1.15,2013-02-06 21:46:00,
2013-02-06 16:52:00,58.6,28.0,30.15,WSW,239,0.0,0.0,31,0.00,,,0.00,Wunderground v.1.15,2013-02-06 21:52:00,
2013-02-06 16:58:00,58.2,29.9,30.15,ESE,122,0.0,0.0,34,0.00,,,0.00,Wunderground v.1.15,2013-02-06 21:58:00,
2013-02-06 17:04:00,57.8,28.1,30.15,ESE,120,0.0,0.0,32,0.00,,,0.00,Wunderground v.1.15,2013-02-06 22:04:00,
2013-02-06 17:10:00,57.6,29.4,30.16,ESE,120,0.0,0.0,34,0.00,,,0.00,Wunderground v.1.15,2013-02-06 22:10:00,
2013-02-06 17:15:00,57.5,28.6,30.16,ESE,117,0.0,1.0,33,0.00,,,0.00,Wunderground v.1.15,2013-02-06 22:15:00,
2013-02-06 17:21:00,57.2,28.3,30.16,ESE,117,0.0,0.0,33,0.00,,,0.00,Wunderground v.1.15,2013-02-06 22:21:00,
2013-02-06 17:27:00,56.7,28.6,30.16,ESE,117,0.0,0.0,34,0.00,,,0.00,Wunderground v.1.15,2013-02-06 22:27:00,
2013-02-06 17:33:00,56.2,29.6,30.17,ESE,117,0.0,0.0,36,0.00,,,0.00,Wunderground v.1.15,2013-02-06 22:33:00,
2013-02-06 17:38:00,55.6,29.7,30.17,ESE,117,0.0,0.0,37,0.00,,,0.00,Wunderground v.1.15,2013-02-06 22:38:00,
2013-02-06 17:44:00,54.9,29.7,30.17,ESE,117,0.0,0.0,38,0.00,,,0.00,Wunderground v.1.15,2013-02-06 22:44:00,
2013-02-06 17:50:00,54.2,29.8,30.18,ESE,117,0.0,0.0,39,0.00,,,0.00,Wunderground v.1.15,2013-02-06 22:50:00,
2013-02-06 17:56:00,53.5,30.4,30.18,ESE,117,0.0,0.0,41,0.00,,,0.00,Wunderground v.1.15,2013-02-06 22:56:00,
2013-02-06 18:01:00,52.8,30.9,30.18,ESE,117,0.0,0.0,43,0.00,,,0.00,Wunderground v.1.15,2013-02-06 23:01:00,
2013-02-06 18:07:00,52.0,30.7,30.18,ESE,117,0.0,0.0,44,0.00,,,0.00,Wunderground v.1.15,2013-02-06 23:07:00,
2013-02-06 18:13:00,51.3,30.7,30.18,ESE,117,0.0,0.0,45,0.00,,,0.00,Wunderground v.1.15,2013-02-06 23:13:00,
2013-02-06 18:19:00,50.6,30.0,30.18,ESE,117,0.0,0.0,45,0.00,,,0.00,Wunderground v.1.15,2013-02-06 23:19:00,
2013-02-06 18:24:00,50.1,30.6,30.18,ESE,117,0.0,0.0,47,0.00,,,0.00,Wunderground v.1.15,2013-02-06 23:24:00,
2013-02-06 18:30:00,49.5,30.1,30.19,ESE,117,0.0,0.0,47,0.00,,,0.00,Wunderground v.1.15,2013-02-06 23:30:00,
2013-02-06 18:36:00,49.0,30.1,30.18,ESE,117,0.0,0.0,48,0.00,,,0.00,Wunderground v.1.15,2013-02-06 23:36:00,
2013-02-06 18:42:00,48.6,30.3,30.19,ESE,117,0.0,0.0,49,0.00,,,0.00,Wunderground v.1.15,2013-02-06 23:42:00,
2013-02-06 18:47:00,48.3,30.0,30.19,ESE,117,0.0,0.0,49,0.00,,,0.00,Wunderground v.1.15,2013-02-06 23:47:00,
2013-02-06 18:53:00,47.9,31.1,30.19,ESE,117,0.0,0.0,52,0.00,,,0.00,Wunderground v.1.15,2013-02-06 23:53:00,
2013-02-06 18:59:00,47.4,30.6,30.19,ESE,117,0.0,0.0,52,0.00,,,0.00,Wunderground v.1.15,2013-02-06 23:59:00,
2013-02-06 19:05:00,46.9,30.6,30.20,ESE,117,0.0,0.0,53,0.00,,,0.00,Wunderground v.1.15,2013-02-07 00:05:00,
2013-02-06 19:11:00,46.5,30.3,30.20,ESE,117,0.0,0.0,53,0.00,,,0.00,Wunderground v.1.15,2013-02-07 00:11:00,
2013-02-06 19:16:00,46.1,29.9,30.21,ESE,117,0.0,0.0,53,0.00,,,0.00,Wunderground v.1.15,2013-02-07 00:16:00,
2013-02-06 19:22:00,45.8,31.0,30.21,ESE,117,0.0,0.0,56,0.00,,,0.00,Wunderground v.1.15,2013-02-07 00:22:00,
2013-02-06 19:27:00,45.5,30.3,30.21,ESE,117,0.0,0.0,55,0.00,,,0.00,Wunderground v.1.15,2013-02-07 00:27:00,
2013-02-06 19:33:00,45.1,30.3,30.21,ESE,117,0.0,0.0,56,0.00,,,0.00,Wunderground v.1.15,2013-02-07 00:33:00,
2013-02-06 19:39:00,44.6,29.9,30.21,ESE,117,0.0,0.0,56,0.00,,,0.00,Wunderground v.1.15,2013-02-07 00:39:00,
2013-02-06 19:45:00,44.3,30.0,30.22,ESE,117,0.0,0.0,57,0.00,,,0.00,Wunderground v.1.15,2013-02-07 00:45:00,
2013-02-06 19:50:00,44.0,30.6,30.22,ESE,117,0.0,0.0,59,0.00,,,0.00,Wunderground v.1.15,2013-02-07 00:50:00,
2013-02-06 19:56:00,43.7,31.9,30.22,ESE,117,0.0,0.0,63,0.00,,,0.00,Wunderground v.1.15,2013-02-07 00:56:00,
2013-02-06 20:02:00,43.3,30.7,30.22,ESE,115,0.0,0.0,61,0.00,,,0.00,Wunderground v.1.15,2013-02-07 01:02:00,
2013-02-06 20:08:00,43.1,31.0,30.22,ESE,116,0.0,0.0,62,0.00,,,0.00,Wunderground v.1.15,2013-02-07 01:08:00,
2013-02-06 20:14:00,42.8,31.1,30.22,ESE,117,0.0,0.0,63,0.00,,,0.00,Wunderground v.1.15,2013-02-07 01:14:00,
2013-02-06 20:20:00,42.6,30.9,30.22,ESE,115,0.0,0.0,63,0.00,,,0.00,Wunderground v.1.15,2013-02-07 01:20:00,
2013-02-06 20:25:00,42.3,30.6,30.22,ESE,115,0.0,0.0,63,0.00,,,0.00,Wunderground v.1.15,2013-02-07 01:25:00,
2013-02-06 20:31:00,42.0,30.3,30.23,ESE,116,0.0,0.0,63,0.00,,,0.00,Wunderground v.1.15,2013-02-07 01:31:00,
2013-02-06 20:37:00,41.8,30.9,30.24,ESE,115,0.0,0.0,65,0.00,,,0.00,Wunderground v.1.15,2013-02-07 01:37:00,
2013-02-06 20:43:00,41.5,31.0,30.24,ESE,115,0.0,0.0,66,0.00,,,0.00,Wunderground v.1.15,2013-02-07 01:43:00,
2013-02-06 20:49:00,41.1,31.0,30.23,ESE,115,0.0,0.0,67,0.00,,,0.00,Wunderground v.1.15,2013-02-07 01:49:00,
2013-02-06 20:55:00,40.9,31.5,30.24,ESE,115,0.0,0.0,69,0.00,,,0.00,Wunderground v.1.15,2013-02-07 01:55:00,
2013-02-06 21:01:00,40.6,30.5,30.24,ESE,115,0.0,0.0,67,0.00,,,0.00,Wunderground v.1.15,2013-02-07 02:01:00,
2013-02-06 21:06:00,40.6,30.9,30.24,ESE,116,0.0,0.0,68,0.00,,,0.00,Wunderground v.1.15,2013-02-07 02:06:00,
2013-02-06 21:12:00,40.4,30.7,30.24,ESE,115,0.0,0.0,68,0.00,,,0.00,Wunderground v.1.15,2013-02-07 02:12:00,
2013-02-06 21:18:00,40.3,30.9,30.24,ESE,117,0.0,0.0,69,0.00,,,0.00,Wunderground v.1.15,2013-02-07 02:18:00,
2013-02-06 21:23:00,40.2,30.5,30.24,ESE,117,0.0,0.0,68,0.00,,,0.00,Wunderground v.1.15,2013-02-07 02:23:00,
2013-02-06 21:29:00,40.1,31.1,30.24,ESE,117,0.0,0.0,70,0.00,,,0.00,Wunderground v.1.15,2013-02-07 02:29:00,
2013-02-06 21:34:00,40.0,30.6,30.25,ESE,117,0.0,0.0,69,0.00,,,0.00,Wunderground v.1.15,2013-02-07 02:34:00,
2013-02-06 21:40:00,39.8,30.8,30.24,ESE,117,0.0,0.0,70,0.00,,,0.00,Wunderground v.1.15,2013-02-07 02:40:00,
2013-02-06 21:46:00,39.6,30.3,30.24,ESE,117,0.0,0.0,69,0.00,,,0.00,Wunderground v.1.15,2013-02-07 02:46:00,
2013-02-06 21:52:00,39.4,30.8,30.24,ESE,117,0.0,0.0,71,0.00,,,0.00,Wunderground v.1.15,2013-02-07 02:52:00,
2013-02-06 21:58:00,39.1,30.1,30.24,ESE,117,0.0,0.0,70,0.00,,,0.00,Wunderground v.1.15,2013-02-07 02:58:00,
2013-02-06 22:04:00,39.1,30.5,30.24,ESE,116,0.0,0.0,71,0.00,,,0.00,Wunderground v.1.15,2013-02-07 03:04:00,
2013-02-06 22:10:00,38.9,29.9,30.23,ESE,115,0.0,0.0,70,0.00,,,0.00,Wunderground v.1.15,2013-02-07 03:10:00,
2013-02-06 22:15:00,38.7,30.1,30.23,ESE,117,0.0,0.0,71,0.00,,,0.00,Wunderground v.1.15,2013-02-07 03:15:00,
2013-02-06 22:21:00,38.4,29.8,30.23,ESE,117,0.0,0.0,71,0.00,,,0.00,Wunderground v.1.15,2013-02-07 03:21:00,
2013-02-06 22:27:00,38.1,29.9,30.24,ESE,117,0.0,0.0,72,0.00,,,0.00,Wunderground v.1.15,2013-02-07 03:27:00,
2013-02-06 22:33:00,37.9,30.0,30.24,ESE,117,0.0,0.0,73,0.00,,,0.00,Wunderground v.1.15,2013-02-07 03:33:00,
2013-02-06 22:38:00,37.8,29.9,30.24,ESE,116,0.0,0.0,73,0.00,,,0.00,Wunderground v.1.15,2013-02-07 03:38:00,
2013-02-06 22:44:00,37.6,29.4,30.24,ESE,115,0.0,0.0,72,0.00,,,0.00,Wunderground v.1.15,2013-02-07 03:44:00,
2013-02-06 22:50:00,37.4,29.5,30.24,ESE,116,0.0,0.0,73,0.00,,,0.00,Wunderground v.1.15,2013-02-07 03:50:00,
2013-02-06 22:56:00,37.1,29.6,30.24,ESE,116,0.0,0.0,74,0.00,,,0.00,Wunderground v.1.15,2013-02-07 03:56:00,
2013-02-06 23:02:00,36.9,29.4,30.24,ESE,116,0.0,0.0,74,0.00,,,0.00,Wunderground v.1.15,2013-02-07 04:02:00,
2013-02-06 23:08:00,36.7,29.5,30.25,ESE,116,0.0,0.0,75,0.00,,,0.00,Wunderground v.1.15,2013-02-07 04:08:00,
2013-02-06 23:13:00,36.6,29.4,30.25,ESE,115,0.0,0.0,75,0.00,,,0.00,Wunderground v.1.15,2013-02-07 04:13:00,
2013-02-06 23:19:00,36.5,30.0,30.25,ESE,115,0.0,0.0,77,0.00,,,0.00,Wunderground v.1.15,2013-02-07 04:19:00,
2013-02-06 23:24:00,36.3,29.8,30.25,ESE,117,0.0,0.0,77,0.00,,,0.00,Wunderground v.1.15,2013-02-07 04:24:00,
2013-02-06 23:30:00,36.2,29.7,30.26,ESE,116,0.0,0.0,77,0.00,,,0.00,Wunderground v.1.15,2013-02-07 04:30:00,
2013-02-06 23:35:00,36.2,29.7,30.27,ESE,115,0.0,0.0,77,0.00,,,0.00,Wunderground v.1.15,2013-02-07 04:35:00,
2013-02-06 23:41:00,36.2,30.0,30.28,ESE,116,0.0,0.0,78,0.00,,,0.00,Wunderground v.1.15,2013-02-07 04:41:00,
2013-02-06 23:47:00,36.1,29.9,30.29,ESE,115,0.0,0.0,78,0.00,,,0.00,Wunderground v.1.15,2013-02-07 04:47:00,
2013-02-06 23:52:00,36.0,29.8,30.28,ESE,116,0.0,0.0,78,0.00,,,0.00,Wunderground v.1.15,2013-02-07 04:52:00,
2013-02-06 23:57:00,35.9,30.0,30.28,ESE,115,0.0,0.0,79,0.00,,,0.00,Wunderground v.1.15,2013-02-07 04:57:00,